Waukegan, IL

12:57 AM CST on January 21, 2018 (GMT -0600)
Waukegan Regional

Weather History for KUGN - April, 2014

Change the Weather History Date:

Wednesday, April 9, 2014

  Actual Average Record
Temperature  
Mean Temperature 44 °F -  
Max Temperature 61 °F 53 °F 75 °F (2017)
Min Temperature 26 °F 34 °F 21 °F (2003)
Degree Days  
Heating Degree Days 21 22  
Month to date heating degree days 230 208  
Since 1 July heating degree days 7238 6078  
Cooling Degree Days 0 0  
Month to date cooling degree days 0 0  
Year to date cooling degree days 0 0  
Moisture  
Dew Point 28 °F    
Average Humidity 59    
Maximum Humidity 92    
Minimum Humidity 25    
Precipitation  
Precipitation 0.00 in 0.11 in 2.55 in (2015)
Month to date precipitation 0.22 0.87  
Year to date precipitation 3.00 6.24  
Sea Level Pressure  
Sea Level Pressure 29.94 in    
Wind  
Wind Speed 9 mph (SW)    
Max Wind Speed 24 mph    
Max Gust Speed 31 mph    
Visibility 10 miles    
Events      
T = Trace of Precipitation, MM = Missing Value Source: NWS Daily Summary

Daily Weather History Graph

Daily Weather History Graph

Search for Another Location

Airport or City:

Trip Planner

Search our weather history database for the weather conditions in past years. The results will help you decide how hot, cold, wet, or windy it might be!

Date:

Astronomy

Apr. 09, 2014 Rise Set
Actual Time 6:20 AM CDT 7:26 PM CDT
Civil Twilight 5:51 AM CDT 7:55 PM CDT
Nautical Twilight 5:17 AM CDT 8:29 PM CDT
Astronomical Twilight 4:41 AM CDT 9:06 PM CDT
Moon 2:08 PM CDT (4/9) 3:15 AM CDT (4/9)
Length of Visible Light 14h 03m
Length of Day
13h 06m
Waxing Gibbous, 72% of the Moon is Illuminated
Apr 9
Waxing Gibbous
Apr 15
Full
Apr 22
Last Quarter
Apr 29
New
May 6
First Quarter

Hourly Weather History & Observations

Time (CDT) Temp. Windchill Dew Point Humidity Pressure Visibility Wind Dir Wind Speed Gust Speed Precip Events Conditions
12:52 AM 37.0 °F 33.3 °F 30.9 °F 79% 29.96 in 10.0 mi North 4.6 mph - N/A   Clear
1:52 AM 36.0 °F 32.1 °F 28.9 °F 76% 29.97 in 10.0 mi North 4.6 mph - N/A   Clear
2:52 AM 28.9 °F - 27.0 °F 92% 29.98 in 10.0 mi Calm Calm - N/A   Clear
3:52 AM 30.0 °F - 28.0 °F 92% 29.97 in 6.0 mi Calm Calm - N/A   Clear
4:52 AM 28.9 °F - 27.0 °F 92% 29.98 in 6.0 mi Calm Calm - N/A   Clear
5:52 AM 28.9 °F - 27.0 °F 92% 30.00 in 7.0 mi Calm Calm - N/A   Clear
6:52 AM 28.0 °F - 26.1 °F 92% 30.02 in 10.0 mi Calm Calm - N/A   Clear
7:52 AM 37.9 °F - 32.0 °F 79% 30.04 in 10.0 mi Calm Calm - N/A   Clear
8:52 AM 43.0 °F 40.3 °F 32.0 °F 65% 30.03 in 10.0 mi South 4.6 mph - N/A   Clear
9:52 AM 48.9 °F - 30.0 °F 48% 30.02 in 10.0 mi South 9.2 mph - N/A   Clear
10:52 AM 52.0 °F - 32.0 °F 47% 30.01 in 10.0 mi Variable 6.9 mph 17.3 mph N/A   Clear
11:52 AM 55.0 °F - 28.0 °F 35% 30.01 in 10.0 mi West 9.2 mph 18.4 mph N/A   Partly Cloudy
1:52 PM 57.9 °F - 25.0 °F 28% 29.96 in 10.0 mi SW 8.1 mph 20.7 mph N/A   Clear
2:52 PM 60.1 °F - 24.1 °F 25% 29.94 in 10.0 mi SSW 18.4 mph 23.0 mph N/A   Clear
3:52 PM 61.0 °F - 24.1 °F 24% 29.91 in 10.0 mi SW 17.3 mph 21.9 mph N/A   Clear
4:52 PM 60.1 °F - 24.1 °F 25% 29.89 in 10.0 mi SW 9.2 mph 23.0 mph N/A   Clear
5:52 PM 59.0 °F - 26.1 °F 28% 29.86 in 10.0 mi SSW 16.1 mph - N/A   Clear
6:52 PM 57.0 °F - 26.1 °F 30% 29.85 in 10.0 mi SSW 12.7 mph - N/A   Scattered Clouds
7:52 PM 57.0 °F - 26.1 °F 30% 29.83 in 10.0 mi SSW 12.7 mph - N/A   Mostly Cloudy
8:52 PM 55.0 °F - 27.0 °F 34% 29.85 in 10.0 mi SSW 13.8 mph - N/A   Mostly Cloudy
9:52 PM 53.1 °F - 28.0 °F 38% 29.86 in 10.0 mi SSW 11.5 mph - N/A   Clear
10:52 PM 54.0 °F - 28.0 °F 37% 29.83 in 10.0 mi SSW 17.3 mph 25.3 mph N/A   Clear
11:52 PM 54.0 °F - 28.9 °F 38% 29.80 in 10.0 mi SSW 20.7 mph 31.1 mph N/A   Clear